VIASAT-2

Last updated on March 8, 2021, 6:42 a.m. UTC

1 42740U 17029A   21066.83591322 -.00000284  00000-0  00000-0 0  9999
2 42740   0.0235 246.2020 0000262 207.0945 303.4502  1.00271169 13853
UTC
Height (km)
Latitude
Longitude
Inclination
Orbital Period
UTC large
Height (km)
Speed (km/s)
/
Latitude / Longitude
Inclination (degrees)
Orbital Period (minutes)
Azimuth
Elevation
Range (km)
Doppler Factor
iOS Compass Heading
iOS Angle

Next 30 passes for location: Hong Kong

Rise time Rise Azimuth (degrees) Set time Set Azimuth (degrees) Duration Max altitude (degrees)

No matching passes for this satellites